Location: Makakahi
(40.6833°S, 175.6000°E)
Time: 13:40:10
(UTC+00:00)

FENGYUN 1C DEB - Pass Details

Date: 12 February 2026
Orbit: 839 x 906 km, 98.9° (Epoch: 3 March)

Event Time Altitude Azimuth Distance (km) Brightness Sun altitude
Rises 09:04:36 0° 166° (SSE) 3,444 ? -17.6°
Reaches altitude 10° 09:06:58 10° 165° (SSE) 2,508 ? -17.9°
Maximum altitude 09:12:34 82° 76° (ENE) 881 ? -18.8°
Drops below altitude 10° 09:18:10 10° 348° (NNW) 2,517 ? -19.6°
Enters shadow 09:18:46 - 348° (NNW) 2,752 ? -19.7°
